Tracking 26922 objects as of 29-Jan-2023
HD Live streaming from Space Station
objects crossing your sky now

SCOUT G-1 DEB

Track SCOUT G-1 DEB now!
10-day predictions


NORAD ID: 19559
Int'l Code: 1988-074F
Perigee: 1,026.9 km
Apogee: 1,169.0 km
Inclination: 89.4 °
Period: 107.1 minutes
Semi major axis: 7468 km
RCS: 0.0283 m2 (small)
Launch date: August 25, 1988
Source: United States (US)
Launch site: AIR FORCE WESTERN TEST RANGE (AFWTR)

Note: This is SATELLITE DEBRIS
Your satellite tracking list
Your tracking list is empty




NASA's NSSDC Master Catalog

Two Line Element Set (TLE):
1 19559U 88074F   23028.18954373  .00000227  00000-0  35991-3 0  9992
2 19559  89.3790 116.9694 0095118 239.6370 146.7239 13.44977084688086
Source of the keplerian elements: AFSPC